Flag for U.S.A. Weather past 2 weeks in Lakewood, Colorado, U.S.A.

Now
41 °F

Passing clouds.


Feels Like: 39 °F
Forecast: 20 / 44 °F
Wind: 3 mph from North

Location: Centennial Airport

Current Time: Dec 19, 2014 at 1:59:07 PM

Latest Report: Dec 19, 2014 at 12:53 PM


Visibility: 10 mi

Pressure: 30.08 "Hg

Humidity: 28%

Dew point: 10 °F

Location of LakewoodLocation

Historic Weather in Lakewood — Graph

°F

Lakewood temperature yesterday

Maximum temperature yesterday: 44 °F (at 2:53 PM)
Minimum temperature yesterday: 25 °F (at 1:53 AM)
Average temperature yesterday: 32 °F

Past Weeks' High & Low Weather Summary

 TemperatureHumidityPressure
High67 °F (Dec 12, 1:53 PM)100% (Dec 14, 9:53 AM)30.42 "Hg (Dec 14, 9:53 AM)
Low19 °F (Dec 16, 2:53 AM)9% (Dec 12, 12:53 PM)29.66 "Hg (Dec 14, 12:53 AM)
Average37 °F55%30.11 "Hg
* Reported Dec 4 12:53 PM — Dec 19 12:53 PM, Lakewood, Weather by CustomWeather, © 2014

Note: Actual official high and low records may vary slightly from our data, if they occured in-between our weather recording intervals... More about our weather records

Advertising

Lakewood weather history for previous 24 hours

 ConditionsComfort  
Time TempWeatherWind HumidityBarometerVisibility
12:53 PM
Dec 19
41 °FPassing clouds.3 mph28%30.08 "Hg10 mi
11:53 AM40 °FPassing clouds.7 mph32%30.10 "Hg10 mi
10:53 AM38 °FPassing clouds.6 mph37%30.15 "Hg10 mi
9:53 AM33 °FPassing clouds.3 mph72%30.19 "Hg10 mi
8:53 AM28 °FPassing clouds.3 mph85%30.20 "Hg10 mi
7:53 AM21 °FPassing clouds.3 mph81%30.23 "Hg10 mi
6:53 AM19 °FPassing clouds.3 mph88%30.23 "Hg10 mi
5:53 AM20 °FPassing clouds.No wind85%30.19 "Hg10 mi
4:53 AM21 °FPassing clouds.No wind88%30.16 "Hg10 mi
3:53 AM23 °FPassing clouds.5 mph92%30.12 "Hg10 mi
2:53 AM23 °FPassing clouds.No wind88%30.11 "Hg7 mi
1:53 AM24 °FPassing clouds.No wind88%30.12 "Hg7 mi
12:53 AM25 °FIce fog.3 mph92%30.13 "Hg5 mi
11:53 PM
Dec 18
29 °FIce fog.7 mph93%30.14 "Hg5 mi
10:53 PM28 °FIce fog.5 mph93%30.16 "Hg5 mi
9:53 PM28 °FIce fog.3 mph93%30.16 "Hg6 mi
8:53 PM29 °FPassing clouds.3 mph85%30.16 "Hg7 mi
7:53 PM29 °FPassing clouds.5 mph89%30.19 "Hg7 mi
6:53 PM31 °FPartly cloudy.No wind85%30.16 "Hg7 mi
5:53 PM34 °FPartly cloudy.5 mph76%30.13 "Hg8 mi
4:53 PM36 °FPartly cloudy.7 mph70%30.10 "Hg6 mi
3:53 PM40 °FPassing clouds.9 mph60%30.06 "Hg10 mi
2:53 PM44 °FPassing clouds.5 mph45%30.03 "Hg10 mi
1:53 PM42 °FPassing clouds.No wind49%30.03 "Hg10 mi
Weather by CustomWeather, © 2014

See weather overviewHow to use our weather pages